Weather Roundup
Issued by NWS

Home | Current Version | Previous Version | Graphics & Text | Print | Product List | Glossary Off
Versions: 1 2 3 4 5 6 7 8 9 10 11 12 13 14 15 16 17 18 19 20 21 22 23 24 25 26 27 28 29 30 31 32 33 34 35 36 37 38 39 40 41 42 43 44 45 46 47 48 49 50

000
NZUS93 KARX 060310
HRRWXR

CURRENT HOURLY OBSERVATIONS ACROSS
MUCH OF THE UPPER MISSISSIPPI VALLEY
NATIONAL WEATHER SERVICE LA CROSSE WI
1000 PM CDT THU MAY 05 2016


...SOUTHEAST MINNESOTA...


CITY           SKY/WX    TMP DP  RH WIND       PRES   REMARKS
ROCHESTER      CLEAR     59  39  47 S7        29.96R
ROCHESTER/MAYO FAIR      66  37  33 S10       29.94R
WINONA         CLEAR     59  46  63 CALM      29.93R
AUSTIN         CLEAR     63  37  39 S3        29.95R
ALBERT LEA     CLEAR     63  45  51 SW3       29.95R
DODGE CENTER   CLEAR     55  37  50 SW8       29.94R
PRESTON        CLEAR     58  38  49 SW7       29.96S
OWATONNA       CLEAR     63  37  39 S9        29.93S
FARIBAULT      CLEAR     66  41  39 S3        29.92R
$$

...ELSEWHERE IN MINNESOTA...


CITY           SKY/WX    TMP DP  RH WIND       PRES   REMARKS
MINNEAPOLIS    PTCLDY    71  39  31 SW6       29.88R
INTNL FALLS    PTCLDY    58  48  69 CALM      29.71R
DULUTH         PTCLDY    71  41  33 SW13      29.80R
RED WING       CLEAR     55  43  62 E3        29.89S
REDWOOD FALLS  CLEAR     67  41  38 SW9       29.91R
MANKATO        CLEAR     70  37  30 S8        29.92R
WORTHINGTON    CLEAR     65  43  44 SW12      29.96R
FAIRMONT       CLEAR     64  39  39 SW8       29.94R
$$

...SOUTHWEST WISCONSIN...


CITY           SKY/WX    TMP DP  RH WIND       PRES   REMARKS
LA CROSSE      MOCLDY    60  42  51 SE6       29.93S
PRAIRIE DU CHI PTCLDY    56  41  58 CALM      29.97R
BOSCOBEL       CLEAR     53  41  63 CALM      29.97R
LONE ROCK      CLEAR     51  40  65 NE3       29.97R
PLATTEVILLE    CLEAR     58  35  41 SW3       29.98S
FORT MC COY    CLOUDY    54  42  64 CALM      29.96R
CAMP DOUGLAS     N/A     51  44  75 E3        29.95R
MAUSTON-NEW LI MOCLDY    52  41  67 CALM      29.95R
VIROQUA        FAIR      59  38  45 S6        29.96S
WIS DELLS      CLEAR     51  37  58 CALM      29.96R
$$

...ELSEWHERE IN WISCONSIN...


CITY           SKY/WX    TMP DP  RH WIND       PRES   REMARKS
MILWAUKEE      PTCLDY    49  36  61 S3        29.98R
MADISON        CLEAR     49  35  58 CALM      29.96R
GREEN BAY      PTCLDY    53  41  63 S3        29.93R
EAU CLAIRE     CLEAR     59  38  45 S6        29.90S
BLACK RVR FLS  FAIR      51  40  67 CALM      29.93S
MEDFORD        PTCLDY    53  43  68 S6        29.92S
WAUSAU         MOCLDY    59  46  62 E5        29.92R
WIS RAPIDS     MOCLDY    57  38  48 SW6       29.95S
MARSHFIELD     PTCLDY    57  38  48 SW7       29.92F
RICE LAKE      CLEAR     60  39  46 S6        29.90S
$$

...NORTHEAST IOWA...


CITY           SKY/WX    TMP DP  RH WIND       PRES   REMARKS
WATERLOO       CLEAR     56  39  53 SE3       29.97R
DUBUQUE        CLEAR     53  38  56 S3        29.99R
DECORAH        PTCLDY    61  37  41 SW6       29.95F
MASON CITY     CLEAR     58  41  53 SW3       29.97R
CHARLES CITY   CLEAR     59  36  41 S8        29.97S
OELWEIN        CLEAR     57  37  47 S6        29.99R
$$

...ELSEWHERE IN IOWA...


CITY           SKY/WX    TMP DP  RH WIND       PRES   REMARKS
DES MOINES     CLEAR     60  38  43 S8        30.00S
IOWA CITY      CLEAR     54  39  57 CALM      30.01R
FORT DODGE     CLEAR     59  37  44 CALM      29.98S
MARSHALLTOWN   CLEAR     58  37  45 SW8       29.98R
CEDAR RAPIDS   CLEAR     57  36  45 CALM      29.99R
$$

...NORTHERN ILLINOIS...


CITY           SKY/WX    TMP DP  RH WIND       PRES   REMARKS
CHICAGO-OHARE  PTCLDY    49  36  61 CALM      29.98S
CHICAGO-MIDWAY CLEAR     51  37  58 SE5       29.99R
MOLINE         CLEAR     50  42  74 CALM      29.99R
ROCKFORD       PTCLDY    52  41  66 CALM      30.00R
PEORIA         CLEAR     52  41  66 CALM      30.01R
$$

NOTE: "FAIR" INDICATES FEW OR NO CLOUDS BELOW 12,000 FEET WITH NO
SIGNIFICANT WEATHER AND/OR OBSTRUCTIONS TO VISIBILITY. WIND
SPEEDS ARE IN MILES-PER-HOUR.




USA.gov is the U.S. government's official web portal to all federal, state and local government web resources and services.